[[{"header":{"parameterUnit":"m.s-1","parameterCategory":1,"la1":30.2991,"la2":30.254,"lo1":-89.0895,"lo2":-89.0444,"dy":0.0017,"dx":0.0017,"nx":28,"ny":28,"refTime":"2024-06-24T09:00:00:Z","depth":0,"parameterNumber":2,"parameterNumberName":"U-component_of_WINDS"},"data":[0,0,0,0,0,0,0,0,0,0,0,0,0,0,0,0,0,0,0,0,0,0,0,0,0,0,0,0,0,0,0,0,0,0,0,0,0,0,0,0,0,0,0,0,0,0,0,0,0,0,0,0,0,0,0,0,0,0,3.4681,3.4682,0,3.4781,3.4782,3.4783,3.478,3.4778,3.4777,3.4776,3.4881,3.4885,3.4889,0,0,0,0,0,0,0,0,0,0,0,0,0,3.449,3.4493,3.4681,3.4682,3.4683,3.4781,3.4782,3.4783,3.478,3.4778,3.4777,3.4775,3.4879,3.4884,3.4889,0,0,0,0,0,0,0,0,0,0,0,0,0,3.458,3.4494,3.468,3.4693,3.4695,3.478,3.4782,3.4784,3.478,3.4778,3.4776,3.4774,3.4878,3.4884,3.489,3.4969,0,0,3.4908,3.4911,0,0,0,0,0,0,0,0,3.4574,3.4587,3.469,3.4692,3.4695,3.4766,3.4753,3.4846,3.4781,3.4748,3.4776,3.4773,3.4844,3.4853,3.4876,3.4974,3.4979,3.4909,3.4913,3.4915,3.4917,0,0,0,0,0,0,0,3.4568,3.4582,3.472,3.4692,3.4695,3.4695,3.4705,3.4771,3.4807,3.4751,3.4751,3.4763,3.4845,3.4871,3.4879,3.498,3.4909,3.4914,3.4918,3.492,3.5151,3.5153,0,0,0,0,0,0,3.4559,3.4577,3.4717,3.4723,3.4628,3.47,3.4712,3.4745,3.4806,3.4813,3.4764,3.4762,3.4861,3.4872,3.4883,3.4981,3.4915,3.4921,3.4925,3.5148,3.5151,3.5154,0,0,0,0,0,0,3.4555,3.4571,3.4713,3.465,3.4668,3.4706,3.4743,3.4748,3.4773,3.4816,3.4823,3.4783,3.486,3.4874,3.4948,3.4984,3.4924,3.4929,3.5145,3.5149,3.5153,3.5178,0,0,0,0,0,0,3.4549,3.457,3.46,3.4651,3.4672,3.4776,3.4745,3.4752,3.4784,3.4782,3.4836,3.4843,3.4859,3.4939,3.4954,3.4992,3.4934,3.5142,3.5147,3.5151,3.5174,3.5182,3.5188,0,0,0,0,0,3.4542,3.4603,3.4601,3.4618,3.4709,3.4778,3.479,3.4807,3.4787,3.4818,3.4845,3.4841,3.4978,3.4947,3.4964,3.5004,3.514,3.5146,3.5151,3.517,3.518,3.5188,0,0,0,0,0,0,3.4555,3.461,3.4608,3.4687,3.4728,3.4777,3.4816,3.4817,3.4865,3.4861,3.4881,3.4893,3.4968,3.4993,3.4957,3.5085,3.5057,3.5066,3.5065,3.5075,3.5082,3.5075,3.4939,0,0,0,0,0,3.4567,3.4617,3.4662,3.4727,3.4748,3.4779,3.4809,3.4819,3.4863,3.488,3.4913,3.4956,3.5009,3.5044,3.5094,3.5177,3.519,3.5214,3.5221,3.5227,3.5235,3.5282,3.5293,3.5172,3.5172,3.5172,0,0,3.4592,3.4628,3.4658,3.4731,3.4764,3.4816,3.4793,3.485,3.4889,3.4889,3.4961,3.4987,3.5037,3.5116,3.5152,3.5139,3.5271,3.5234,3.5238,3.5243,3.5289,3.53,3.531,3.5176,3.5175,3.5174,0,0,3.4664,3.4696,3.4754,3.4788,3.4838,3.4859,3.4873,3.4923,3.494,3.5012,3.5014,3.5062,3.5152,3.5188,3.5218,3.5306,3.5304,3.5322,3.5361,3.5407,3.5416,3.5425,3.5457,3.5469,3.533,3.533,3.533,0,3.4689,3.4768,3.4784,3.4842,3.4874,3.4876,3.4936,3.4968,3.5033,3.5055,3.504,3.5154,3.5188,3.5276,3.5298,3.5322,3.534,3.5316,3.5413,3.5422,3.5431,3.5462,3.5474,3.5332,3.5332,3.5331,3.5331,0,3.4796,3.4851,3.4892,3.4954,3.4992,3.505,3.5077,3.5113,3.512,3.5142,3.5217,3.5258,3.5318,3.5339,3.5347,3.543,3.542,3.5409,3.5381,3.5444,3.5473,3.5485,3.5334,3.5334,3.5333,3.5333,0,0,3.4879,3.495,3.4965,3.4994,3.505,3.5093,3.5153,3.5211,3.5242,3.5287,3.5338,3.5415,3.5405,3.544,3.5451,3.5492,3.556,3.5476,3.5477,3.549,3.5655,3.5664,3.5677,3.556,3.5562,3.5564,3.5651,0,3.4957,3.5062,3.5079,3.5171,3.5223,3.5226,3.5278,3.5319,3.5342,3.539,3.5416,3.5471,3.5453,3.5474,3.5514,3.5543,3.5594,3.5537,3.5608,3.5611,3.5596,3.5692,3.5701,3.5782,3.5663,3.5665,3.5666,0,3.5063,3.5111,3.5207,3.5258,3.5281,3.5327,3.5382,3.5428,3.5475,3.5489,3.5528,3.5536,3.5599,3.5568,3.5656,3.5617,3.5648,3.5667,3.567,3.5678,3.5642,3.5703,3.5808,3.582,3.5685,3.5683,3.5682,0,3.5114,3.5203,3.5272,3.5297,3.5358,3.539,3.5417,3.5462,3.5497,3.5546,3.5569,3.5625,3.5655,3.5699,3.5722,3.5697,3.5809,3.578,3.5823,3.5823,3.5846,3.5845,3.5958,3.5866,3.5866,3.5865,3.5865,0,3.5201,3.526,3.5296,3.5339,3.5406,3.5427,3.5493,3.552,3.556,3.5609,3.5616,3.5662,3.569,3.574,3.5759,3.5829,3.5843,3.5857,3.5861,3.5857,3.5855,3.5877,3.5872,3.5869,3.5868,3.5867,3.5867,0,3.5269,3.5296,3.5372,3.5424,3.5438,3.5485,3.553,3.5573,3.5596,3.5658,3.5674,3.5711,3.5771,3.5799,3.5873,3.5885,3.5966,3.5966,3.595,3.5952,3.5994,3.599,3.6125,3.6144,3.6039,3.604,3.6041,0,3.5322,3.5368,3.5425,3.5458,3.5486,3.5539,3.5574,3.5597,3.5634,3.5692,3.5728,3.5788,3.5837,3.5933,3.5968,3.6025,3.6027,3.607,3.6035,3.603,3.6028,3.6025,3.603,3.6077,3.6078,3.6078,3.6079,0,3.5415,3.5426,3.5476,3.5532,3.5574,3.5618,3.5662,3.569,3.572,3.5761,3.5822,3.586,3.5936,3.5996,3.6056,3.6085,3.6088,3.609,3.6103,3.6099,3.6088,3.6095,3.5968,3.6087,3.6086,3.6085,3.6085,3.6085,3.5478,3.5519,3.5566,3.5622,3.5658,3.5699,3.5742,3.5771,3.5822,3.5885,3.5896,3.5962,3.601,3.609,3.6121,3.6174,3.6163,3.6182,3.6187,3.6192,3.6194,3.6079,3.6185,3.6185,3.6184,3.6184,3.6184,0,3.5571,3.5601,3.5653,3.5714,3.5759,3.5757,3.5807,3.5844,3.5902,3.5946,3.5994,3.6065,3.6124,3.6164,3.6223,3.6258,3.6261,3.6273,3.6271,3.6277,3.62,3.6183,3.627,3.627,3.627,3.627,3.6269,3.6269,3.5624,3.5695,3.5712,3.58,3.5831,3.5895,3.5923,3.5962,3.5997,3.6076,3.6125,3.615,3.6193,3.6256,3.631,3.6321,3.6342,3.6355,3.6365,3.6292,3.6283,3.6274,3.6258,3.636,3.636,3.6438,3.6439,3.644]},{"header":{"parameterUnit":"m.s-1","parameterCategory":1,"la1":30.2991,"la2":30.254,"lo1":-89.0895,"lo2":-89.0444,"dy":0.0017,"dx":0.0017,"nx":28,"ny":28,"refTime":"2024-06-24T09:00:00:Z","depth":0,"parameterNumber":3,"parameterNumberName":"V-component_of_WINDS"},"data":[0,0,0,0,0,0,0,0,0,0,0,0,0,0,0,0,0,0,0,0,0,0,0,0,0,0,0,0,0,0,0,0,0,0,0,0,0,0,0,0,0,0,0,0,0,0,0,0,0,0,0,0,0,0,0,0,0,0,0.1949,0.1949,0,0.1985,0.1986,0.1986,0.197,0.1969,0.1968,0.1967,0.2005,0.2007,0.2009,0,0,0,0,0,0,0,0,0,0,0,0,0,0.1865,0.1866,0.1949,0.1949,0.195,0.1985,0.1986,0.1986,0.197,0.1969,0.1968,0.1967,0.2005,0.2007,0.2009,0,0,0,0,0,0,0,0,0,0,0,0,0,0.1901,0.1867,0.1949,0.1946,0.1946,0.1985,0.1986,0.1987,0.197,0.1969,0.1968,0.1966,0.2004,0.2007,0.201,0.2054,0,0,0.2018,0.2019,0,0,0,0,0,0,0,0,0.1899,0.1904,0.1946,0.1946,0.1946,0.1972,0.197,0.2009,0.1971,0.1961,0.1967,0.1966,0.1995,0.1999,0.2009,0.2056,0.2057,0.2018,0.202,0.2021,0.2022,0,0,0,0,0,0,0,0.1897,0.1903,0.1963,0.1947,0.1947,0.1943,0.1946,0.1977,0.1986,0.1962,0.1961,0.1965,0.1995,0.2006,0.2009,0.2058,0.2018,0.2021,0.2022,0.2024,0.2141,0.2142,0,0,0,0,0,0,0.1894,0.1901,0.1962,0.1965,0.1919,0.1945,0.1949,0.1965,0.1985,0.1987,0.1966,0.1964,0.2002,0.2006,0.2011,0.2063,0.2021,0.2024,0.2025,0.214,0.2141,0.2143,0,0,0,0,0,0,0.1892,0.19,0.1961,0.1932,0.194,0.1948,0.1966,0.1966,0.1977,0.1988,0.199,0.1976,0.2001,0.2007,0.2043,0.2064,0.2025,0.2028,0.2138,0.214,0.2142,0.2168,0,0,0,0,0,0,0.189,0.1899,0.1917,0.1933,0.1941,0.1993,0.1967,0.1968,0.1982,0.198,0.1998,0.2,0.2,0.2039,0.2046,0.2067,0.203,0.2136,0.2139,0.2141,0.2165,0.217,0.2175,0,0,0,0,0,0.1887,0.1923,0.1918,0.1925,0.1963,0.1994,0.1999,0.1999,0.1984,0.2001,0.2008,0.1999,0.206,0.2043,0.205,0.2073,0.2135,0.2138,0.2141,0.2163,0.2169,0.2175,0,0,0,0,0,0,0.191,0.1925,0.1919,0.1962,0.1976,0.1991,0.2013,0.2006,0.2026,0.2023,0.2022,0.2027,0.2063,0.2072,0.2052,0.2115,0.2095,0.21,0.2109,0.2115,0.212,0.2117,0.2032,0,0,0,0,0,0.192,0.1944,0.1956,0.1992,0.1999,0.2005,0.2018,0.2017,0.2032,0.2039,0.2048,0.2064,0.2086,0.2101,0.2123,0.2166,0.2169,0.2185,0.219,0.2194,0.2198,0.222,0.2227,0.2154,0.2154,0.2153,0,0,0.1941,0.1952,0.1967,0.1997,0.2008,0.2032,0.201,0.2037,0.2055,0.2043,0.2077,0.2084,0.2101,0.2141,0.2159,0.2149,0.2219,0.2198,0.2201,0.2203,0.2224,0.2231,0.2237,0.2156,0.2155,0.2155,0,0,0.1991,0.2002,0.2033,0.2044,0.2061,0.2064,0.2071,0.2086,0.2091,0.2125,0.2115,0.2136,0.2176,0.2188,0.2199,0.2251,0.2243,0.2258,0.2285,0.2306,0.2311,0.2316,0.2334,0.234,0.2262,0.2262,0.2262,0,0.2015,0.2051,0.2049,0.2076,0.2089,0.2078,0.2108,0.2119,0.2143,0.2151,0.214,0.2187,0.2198,0.2239,0.2252,0.2262,0.2269,0.2256,0.2311,0.2316,0.232,0.2337,0.2344,0.2264,0.2264,0.2264,0.2263,0,0.2079,0.2104,0.2126,0.2148,0.2163,0.2192,0.2194,0.2209,0.2206,0.221,0.2243,0.2256,0.2279,0.2288,0.2286,0.2328,0.2322,0.231,0.229,0.2329,0.2345,0.2351,0.2266,0.2266,0.2265,0.2265,0,0,0.2146,0.2164,0.2173,0.2181,0.2198,0.2218,0.2245,0.2267,0.2279,0.2295,0.2318,0.235,0.2339,0.2352,0.235,0.2369,0.2407,0.2355,0.2355,0.2364,0.2454,0.2461,0.2469,0.2402,0.2403,0.2404,0.2452,0,0.2196,0.2244,0.2242,0.2287,0.2309,0.2298,0.2321,0.2334,0.2338,0.2357,0.2361,0.2384,0.2368,0.2376,0.2393,0.2399,0.2425,0.2396,0.2422,0.2423,0.2418,0.2477,0.2486,0.2531,0.2458,0.2459,0.246,0,0.2262,0.2279,0.2325,0.2337,0.2346,0.2368,0.2386,0.2405,0.2418,0.242,0.2433,0.2428,0.2455,0.2433,0.2469,0.2449,0.246,0.2464,0.2465,0.2468,0.2444,0.2481,0.2545,0.2551,0.247,0.2469,0.2468,0,0.2305,0.2339,0.2371,0.2379,0.2394,0.2409,0.2416,0.2428,0.244,0.2456,0.2464,0.2484,0.2494,0.2509,0.2509,0.2493,0.2545,0.2524,0.2547,0.2547,0.2558,0.2557,0.2624,0.2566,0.2566,0.2566,0.2566,0,0.2361,0.239,0.239,0.2409,0.244,0.2438,0.2469,0.2474,0.2484,0.2504,0.2496,0.2515,0.2514,0.2532,0.2532,0.2562,0.2567,0.2568,0.2568,0.2569,0.2568,0.2576,0.2572,0.2567,0.2567,0.2567,0.2566,0,0.2414,0.2416,0.2449,0.246,0.2463,0.2486,0.2494,0.2513,0.2515,0.254,0.2546,0.255,0.2571,0.2572,0.2597,0.2597,0.2632,0.2629,0.2628,0.2627,0.2649,0.2647,0.2723,0.2732,0.2668,0.2669,0.2669,0,0.245,0.2472,0.2484,0.2496,0.2504,0.2524,0.2536,0.2534,0.2547,0.2563,0.2578,0.2599,0.2615,0.265,0.2655,0.2673,0.267,0.2695,0.2672,0.2672,0.2669,0.2667,0.2669,0.2699,0.27,0.2701,0.2701,0,0.2513,0.2512,0.253,0.2548,0.2562,0.2576,0.2589,0.26,0.2598,0.2613,0.2635,0.2647,0.2672,0.2692,0.2709,0.2716,0.2708,0.2708,0.2714,0.2715,0.2713,0.2713,0.2639,0.2706,0.2706,0.2705,0.2705,0.2705,0.2558,0.2576,0.2587,0.2606,0.2616,0.2627,0.2644,0.2648,0.2666,0.2685,0.2683,0.2706,0.2717,0.274,0.2748,0.2766,0.2757,0.2766,0.2768,0.277,0.2772,0.271,0.2769,0.2769,0.2769,0.2768,0.2768,0,0.262,0.2626,0.2644,0.2661,0.2676,0.2667,0.268,0.2693,0.2714,0.2725,0.274,0.2764,0.2783,0.2788,0.2806,0.2819,0.2816,0.2824,0.2823,0.2824,0.2779,0.2772,0.2826,0.2826,0.2826,0.2826,0.2826,0.2826,0.2653,0.2683,0.2683,0.2716,0.2722,0.2744,0.2752,0.2762,0.2771,0.2797,0.2813,0.2816,0.2824,0.2843,0.2859,0.286,0.2867,0.2876,0.2876,0.2834,0.2828,0.2822,0.2815,0.2878,0.2878,0.2919,0.292,0.292]}]]